FALCON 9 DEB (45422 NORAD) Tracking and Keplerian Element Data

This shows tracking and keplerian element data for the satellite.

Feedback or suggestion? Click here.




ElementValue
Catalog45422
NameFALCON 9 DEB
Epoch Orbit476
Epoch Day104.16860483
Epoch Year2020
RAAN123.1953
Inclination52.9884
Eccentricity0.0012199
Argument of Perigee144.6385
Mean Anonmoly215.5473
Mean Motion16.44096781
Decay Rate0.08988292
L11 45422U 20019BQ 20104.16860483 .08988292 12313-4 26683-3 0 9990
L22 45422 52.9884 123.1953 0012199 144.6385 215.5473 16.44096781 4762

Live tracking and technical data element details for FALCON 9 DEB (NORAD 45422). FALCON 9 DEB can be tracked NOW for your location showing map with azimuth and elevation plus other details from your city location.

Track the satellite on the map from your city or location and see movement details for azimuth, elevation, latitude, longitude, range, height, and movement on the map or in text.







IsCatalogInMostPopularTable: catalog: 45422, numindb: 15
Update: records affected: 1



GetName: 45422 FALCON 9 DEB

Hit Count: updated at: Sat, 30 May 2020 14:35:30 GMT